GW1714 Weather Reports


Display with metric or nautical units.
time (UTC)temp
F
wind
direction
speed
MPH
gust
MPH
rain 1hr
in
rain 24hr
in
rain mn
in
humidity
%
barometer
mb
20260510234612 76 157 0.0 0.0 0.00 0.00 0.00 49 1033.9
20260510234110 77 157 0.0 0.0 0.00 0.00 0.00 49 1033.7
20260510233606 77 157 0.0 0.0 0.00 0.00 0.00 49 1033.8
20260510233102 77 157 0.0 0.0 0.00 0.00 0.00 48 1033.8
20260510232558 78 5 0.0 0.0 0.00 0.00 0.00 48 1033.9
20260510232054 79 5 0.0 0.0 0.00 0.00 0.00 46 1034.0
20260510231552 80 5 0.0 0.0 0.00 0.00 0.00 45 1033.9
20260510231048 81 5 0.0 0.0 0.00 0.00 0.00 42 1033.9
20260510230543 83 5 0.0 0.0 0.00 0.00 0.00 41 1033.9
20260510230040 83 23 0.0 0.0 0.00 0.00 0.00 42 1033.9
20260510225537 83 23 0.0 0.0 0.00 0.00 0.00 43 1034.2
20260510225033 85 16 2.0 2.0 0.00 0.00 0.00 37 1033.7
20260510224529 84 139 0.0 2.0 0.00 0.00 0.00 41 1034.0
20260510224026 82 0 0.0 2.0 0.00 0.00 0.00 41 1033.9
20260510223524 82 26 1.0 3.0 0.00 0.00 0.00 39 1033.8
20260510223021 83 0 0.0 2.0 0.00 0.00 0.00 42 1033.7
20260510222518 83 0 1.0 2.0 0.00 0.00 0.00 41 1033.8
20260510222014 84 352 0.0 2.0 0.00 0.00 0.00 40 1033.7
20260510221510 83 344 3.0 3.0 0.00 0.00 0.00 41 1033.7
20260510221006 83 0 0.0 0.0 0.00 0.00 0.00 40 1034.2
20260510220502 84 0 0.0 1.0 0.00 0.00 0.00 40 1033.9
20260510215958 88 180 0.0 0.0 0.00 0.00 0.00 39 1034.0
20260510215456 86 0 0.0 1.0 0.00 0.00 0.00 42 1033.9
20260510214954 85 337 0.0 0.0 0.00 0.00 0.00 41 1033.8
20260510214450 84 337 0.0 1.0 0.00 0.00 0.00 42 1033.8
20260510213946 83 331 0.0 1.0 0.00 0.00 0.00 39 1033.8
20260510213443 85 243 0.0 0.0 0.00 0.00 0.00 40 1033.8
20260510212934 84 188 0.0 2.0 0.00 0.00 0.00 38 1033.9
20260510212431 83 52 2.0 3.0 0.00 0.00 0.00 39 1033.8
20260510211927 83 160 0.0 3.0 0.00 0.00 0.00 41 1033.8
20260510211425 85 180 1.0 3.0 0.00 0.00 0.00 40 1034.0
20260510210919 86 195 0.0 1.0 0.00 0.00 0.00 38 1033.6
20260510210415 86 157 0.0 3.0 0.00 0.00 0.00 40 1034.0
20260510205914 86 14 0.0 2.0 0.00 0.00 0.00 37 1033.9
20260510205409 86 278 0.0 1.0 0.00 0.00 0.00 39 1033.9
20260510204906 85 180 0.0 2.0 0.00 0.00 0.00 40 1033.8
20260510204402 86 168 2.0 3.0 0.00 0.00 0.00 39 1034.0
20260510203859 87 246 0.0 1.0 0.00 0.00 0.00 39 1033.9
20260510203356 85 166 0.0 1.0 0.00 0.00 0.00 40 1034.0
20260510202851 84 331 0.0 3.0 0.00 0.00 0.00 39 1034.2
20260510202347 86 254 1.0 3.0 0.00 0.00 0.00 39 1033.9
20260510201844 87 74 0.0 2.0 0.00 0.00 0.00 39 1034.2
20260510201341 86 180 0.0 1.0 0.00 0.00 0.00 38 1034.5
20260510200837 84 165 0.0 2.0 0.00 0.00 0.00 39 1034.4
20260510200336 83 29 0.0 3.0 0.00 0.00 0.00 38 1034.6
20260510195831 80 177 3.0 4.0 0.00 0.00 0.00 44 1034.4
20260510195328 81 164 3.0 3.0 0.00 0.00 0.00 40 1034.6
20260510194823 82 180 2.0 3.0 0.00 0.00 0.00 39 1034.3
20260510194320 83 157 0.0 2.0 0.00 0.00 0.00 40 1034.6
20260510193815 84 165 1.0 2.0 0.00 0.00 0.00 39 1034.7
20260510193310 83 180 0.0 2.0 0.00 0.00 0.00 41 1034.7
20260510192806 83 195 0.0 2.0 0.00 0.00 0.00 40 1034.6
20260510192306 81 352 0.0 2.0 0.00 0.00 0.00 38 1034.9
20260510191758 82 270 0.0 0.0 0.00 0.00 0.00 39 1034.6
20260510191254 82 196 2.0 2.0 0.00 0.00 0.00 41 1034.7
20260510190752 81 160 4.0 4.0 0.00 0.00 0.00 40 1034.7
20260510190249 82 77 0.0 3.0 0.00 0.00 0.00 37 1034.7
20260510185745 81 180 0.0 2.0 0.00 0.00 0.00 41 1035.0
20260510185244 81 170 3.0 4.0 0.00 0.00 0.00 41 1034.9
20260510184740 82 187 0.0 3.0 0.00 0.00 0.00 42 1034.9
20260510184237 82 82 0.0 5.0 0.00 0.00 0.00 42 1034.8
20260510183731 80 350 0.0 2.0 0.00 0.00 0.00 44 1034.9
20260510183226 80 331 0.0 3.0 0.00 0.00 0.00 42 1034.9
20260510182723 81 81 0.0 2.0 0.00 0.00 0.00 44 1034.8
20260510182219 81 90 0.0 1.0 0.00 0.00 0.00 44 1035.0
20260510181716 80 169 3.0 3.0 0.00 0.00 0.00 42 1034.7
20260510181213 80 172 0.0 0.0 0.00 0.00 0.00 45 1035.0
20260510180709 78 50 3.0 6.0 0.00 0.00 0.00 43 1034.9
20260510180207 78 152 0.0 5.0 0.00 0.00 0.00 47 1034.7
20260510175702 76 352 0.0 3.0 0.00 0.00 0.00 45 1035.1
20260510175158 78 325 1.0 3.0 0.00 0.00 0.00 46 1035.2
20260510174655 76 328 0.0 3.0 0.00 0.00 0.00 46 1035.4
20260510174153 76 16 2.0 6.0 0.00 0.00 0.00 46 1035.1
20260510173649 75 15 2.0 3.0 0.00 0.00 0.00 49 1035.4
20260510173145 75 206 0.0 2.0 0.00 0.00 0.00 50 1035.7
20260510172640 76 102 0.0 3.0 0.00 0.00 0.00 52 1035.5
20260510172137 75 90 0.0 2.0 0.00 0.00 0.00 50 1035.5
20260510171634 75 177 3.0 3.0 0.00 0.00 0.00 51 1035.6
20260510171132 75 171 2.0 2.0 0.00 0.00 0.00 52 1035.5
20260510170628 75 161 0.0 2.0 0.00 0.00 0.00 50 1035.5
20260510170124 74 195 0.0 1.0 0.00 0.00 0.00 51 1035.6
20260510165620 74 187 0.0 0.0 0.00 0.00 0.00 51 1035.5
20260510165116 74 187 1.0 3.0 0.00 0.00 0.00 51 1035.5
20260510164614 74 180 0.0 0.0 0.00 0.00 0.00 53 1035.5
20260510164110 75 15 0.0 3.0 0.00 0.00 0.00 50 1035.5
20260510163605 75 124 0.0 4.0 0.00 0.00 0.00 52 1035.4
20260510163102 74 152 3.0 3.0 0.00 0.00 0.00 56 1035.4
20260510162556 72 164 2.0 2.0 0.00 0.00 0.00 58 1035.5
20260510162053 72 157 0.0 2.0 0.00 0.00 0.00 59 1035.6
20260510161549 71 180 1.0 2.0 0.00 0.00 0.00 63 1035.6
20260510161046 72 172 0.0 2.0 0.00 0.00 0.00 66 1035.7
20260510160543 72 166 1.0 2.0 0.00 0.00 0.00 65 1035.9
20260510160042 72 144 2.0 2.0 0.00 0.00 0.00 67 1035.8
20260510155539 71 32 0.0 0.0 0.00 0.00 0.00 68 1035.5
20260510155036 71 15 0.0 0.0 0.00 0.00 0.00 68 1035.6
20260510154531 70 103 1.0 2.0 0.00 0.00 0.00 67 1035.7
20260510154027 71 180 2.0 3.0 0.00 0.00 0.00 69 1035.7
20260510153522 71 157 0.0 3.0 0.00 0.00 0.00 70 1035.5
20260510153019 70 180 0.0 1.0 0.00 0.00 0.00 72 1035.7
20260510152516 70 160 1.0 3.0 0.00 0.00 0.00 70 1035.8
20260510152012 70 148 2.0 3.0 0.00 0.00 0.00 70 1035.6
20260510151509 70 147 0.0 4.0 0.00 0.00 0.00 69 1035.6
20260510151007 70 8 0.0 3.0 0.00 0.00 0.00 72 1035.5
20260510150502 70 0 0.0 2.0 0.00 0.00 0.00 74 1035.4
20260510145957 70 0 0.0 2.0 0.00 0.00 0.00 73 1035.4
20260510145454 69 173 0.0 2.0 0.00 0.00 0.00 74 1035.1
20260510144951 69 22 2.0 3.0 0.00 0.00 0.00 73 1035.3
20260510144447 69 354 0.0 1.0 0.00 0.00 0.00 75 1035.4
20260510143943 69 355 1.0 4.0 0.00 0.00 0.00 75 1035.4
20260510143439 69 344 2.0 4.0 0.00 0.00 0.00 76 1035.4
20260510142936 69 24 2.0 4.0 0.00 0.00 0.00 77 1035.4
20260510142427 68 0 2.0 2.0 0.00 0.00 0.00 77 1035.4
20260510141924 68 21 3.0 3.0 0.00 0.00 0.00 77 1035.6
20260510141420 67 17 3.0 4.0 0.00 0.00 0.00 78 1035.5
20260510140917 67 15 0.0 0.0 0.00 0.00 0.00 83 1035.6
20260510140414 66 194 0.0 0.0 0.00 0.00 0.00 84 1035.5
20260510135907 66 194 0.0 1.0 0.00 0.00 0.00 84 1035.8
20260510135404 66 66 0.0 0.0 0.00 0.00 0.00 83 1035.6
20260510134901 66 66 0.0 2.0 0.00 0.00 0.00 81 1035.7
20260510134358 66 0 2.0 3.0 0.00 0.00 0.00 82 1035.6
20260510133854 65 28 2.0 3.0 0.00 0.00 0.00 84 1035.8
20260510133350 64 345 0.0 0.0 0.00 0.00 0.00 88 1035.5
20260510132846 64 345 0.0 0.0 0.00 0.00 0.00 87 1035.7
20260510132344 64 345 0.0 2.0 0.00 0.00 0.00 86 1035.6
20260510131840 64 12 1.0 2.0 0.00 0.00 0.00 87 1035.4
20260510131338 63 0 3.0 3.0 0.00 0.00 0.00 89 1035.4
20260510130834 63 7 0.0 1.0 0.00 0.00 0.00 90 1035.4
20260510130332 62 0 0.0 2.0 0.00 0.00 0.00 91 1035.5
20260510125828 61 0 0.0 2.0 0.00 0.00 0.00 92 1035.2
20260510125324 61 6 1.0 1.0 0.00 0.00 0.00 94 1035.4
20260510124821 60 165 0.0 1.0 0.00 0.00 0.00 94 1035.2
20260510124318 60 8 0.0 1.0 0.00 0.00 0.00 94 1035.3
20260510123814 60 15 0.0 2.0 0.00 0.00 0.00 94 1035.3
20260510123309 59 21 2.0 2.0 0.00 0.00 0.00 94 1035.3
20260510122806 58 356 2.0 2.0 0.00 0.00 0.00 94 1035.4
20260510122306 58 353 2.0 2.0 0.00 0.00 0.00 94 1035.2
20260510121759 58 349 1.0 2.0 0.00 0.00 0.00 95 1035.1
20260510121256 57 352 0.0 2.0 0.00 0.00 0.00 95 1035.2
20260510120753 57 350 2.0 2.0 0.00 0.00 0.00 95 1035.5
20260510120250 57 0 1.0 2.0 0.00 0.00 0.00 95 1035.1
20260510115746 57 0 2.0 2.0 0.00 0.00 0.00 95 1035.3
20260510115244 57 180 0.0 0.0 0.00 0.00 0.00 96 1035.2
20260510114738 57 154 1.0 2.0 0.00 0.00 0.00 96 1035.1
20260510114236 56 15 0.0 2.0 0.00 0.00 0.00 96 1034.8
20260510113731 57 14 0.0 0.0 0.00 0.00 0.00 96 1034.8
20260510113228 56 0 0.0 1.0 0.00 0.00 0.00 96 1034.7
20260510112718 56 8 0.0 2.0 0.00 0.00 0.00 95 1034.5
20260510112215 56 0 2.0 2.0 0.00 0.00 0.00 95 1034.6
20260510111711 56 356 2.0 2.0 0.00 0.00 0.00 95 1034.6
20260510111208 57 0 1.0 2.0 0.00 0.00 0.00 95 1034.5
20260510110702 56 0 0.0 0.0 0.00 0.00 0.00 96 1034.3
20260510110200 56 0 2.0 2.0 0.00 0.00 0.00 95 1034.4
20260510105655 57 345 0.0 2.0 0.00 0.00 0.00 95 1034.3
20260510105155 57 353 0.0 0.0 0.00 0.00 0.00 96 1034.2
20260510104652 56 0 1.0 1.0 0.00 0.00 0.00 96 1034.2
20260510104149 56 355 1.0 1.0 0.00 0.00 0.00 96 1033.8
20260510103646 56 352 0.0 2.0 0.00 0.00 0.00 95 1033.8
20260510103143 57 350 0.0 2.0 0.00 0.00 0.00 95 1033.8
20260510102638 57 0 0.0 1.0 0.00 0.00 0.00 96 1033.8
20260510102134 57 0 0.0 2.0 0.00 0.00 0.00 96 1033.8
20260510101632 56 3 3.0 3.0 0.00 0.00 0.00 95 1033.5
20260510101129 56 331 1.0 3.0 0.00 0.00 0.00 95 1033.5
20260510100625 57 0 1.0 2.0 0.00 0.00 0.00 94 1033.5
20260510100123 58 344 2.0 2.0 0.00 0.00 0.00 94 1033.4
20260510095619 58 0 0.0 0.0 0.00 0.00 0.00 93 1033.1
20260510095119 58 0 0.0 0.0 0.00 0.00 0.00 93 1033.3
20260510094617 58 7 0.0 1.0 0.00 0.00 0.00 93 1033.1
20260510094113 59 26 1.0 2.0 0.00 0.00 0.00 94 1033.1
20260510093610 58 15 0.0 2.0 0.00 0.00 0.00 94 1032.9
20260510093107 58 0 0.0 1.0 0.00 0.00 0.00 94 1032.9
20260510092604 57 0 0.0 2.0 0.00 0.00 0.00 93 1033.0
20260510092103 58 352 0.0 2.0 0.00 0.00 0.00 93 1032.8
20260510091600 58 7 0.0 2.0 0.00 0.00 0.00 94 1032.9
20260510091056 58 340 0.0 2.0 0.00 0.00 0.00 94 1032.8
20260510090554 58 345 0.0 3.0 0.00 0.00 0.00 94 1032.6
20260510090049 58 345 1.0 2.0 0.00 0.00 0.00 93 1032.6
20260510085544 59 0 0.0 0.0 0.00 0.00 0.00 93 1032.6
20260510085040 59 0 0.0 0.0 0.00 0.00 0.00 92 1032.6
20260510084537 59 0 0.0 1.0 0.00 0.00 0.00 92 1032.6
20260510084034 60 7 0.0 1.0 0.00 0.00 0.00 92 1032.8
20260510083530 60 352 0.0 0.0 0.00 0.00 0.00 91 1032.5
20260510083027 61 15 0.0 0.0 0.00 0.00 0.00 90 1032.5
20260510082524 61 99 0.0 0.0 0.00 0.00 0.00 90 1032.5
20260510082019 61 99 0.0 0.0 0.00 0.00 0.00 89 1032.3
20260510081514 61 99 0.0 0.0 0.00 0.00 0.00 89 1032.3
20260510081010 61 99 0.0 0.0 0.00 0.00 0.00 90 1032.1
20260510080509 61 23 1.0 2.0 0.00 0.00 0.00 90 1032.3
20260510080006 61 15 0.0 0.0 0.00 0.00 0.00 90 1032.1
20260510075504 61 20 0.0 1.0 0.00 0.00 0.00 91 1031.8
20260510075000 61 180 0.0 0.0 0.00 0.00 0.00 91 1031.9
20260510074458 61 180 0.0 0.0 0.00 0.00 0.00 91 1031.9
20260510073953 61 180 0.0 0.0 0.00 0.00 0.00 91 1031.9
20260510073449 61 174 1.0 1.0 0.00 0.00 0.00 90 1032.2
20260510072946 61 8 0.0 0.0 0.00 0.00 0.00 90 1031.8
20260510072443 61 8 0.0 1.0 0.00 0.00 0.00 90 1031.7
20260510071938 62 99 0.0 0.0 0.00 0.00 0.00 90 1031.7
20260510071435 62 99 0.0 1.0 0.00 0.00 0.00 90 1031.8
20260510070933 61 23 0.0 0.0 0.00 0.00 0.00 90 1031.6
20260510070430 62 23 0.0 1.0 0.00 0.00 0.00 90 1031.8
20260510065926 62 90 0.0 0.0 0.00 0.00 0.00 89 1031.6
20260510065422 62 90 0.0 0.0 0.00 0.00 0.00 88 1031.9
20260510064918 63 90 0.0 0.0 0.00 0.00 0.00 87 1031.6
20260510064417 63 90 0.0 0.0 0.00 0.00 0.00 86 1031.5
20260510063913 63 90 0.0 0.0 0.00 0.00 0.00 86 1031.7
20260510063409 64 352 0.0 0.0 0.00 0.00 0.00 86 1031.6
20260510062907 64 90 0.0 0.0 0.00 0.00 0.00 85 1031.7
20260510062402 64 90 0.0 0.0 0.00 0.00 0.00 85 1031.6
20260510061858 64 0 0.0 3.0 0.00 0.00 0.00 85 1031.7
20260510061354 64 0 0.0 2.0 0.00 0.00 0.00 85 1031.6
20260510060850 64 81 0.0 0.0 0.00 0.00 0.00 84 1031.8
20260510060347 65 36 2.0 2.0 0.00 0.00 0.00 84 1031.8
20260510055843 64 20 1.0 4.0 0.00 0.00 0.00 84 1032.2
20260510055343 64 28 0.0 3.0 0.00 0.00 0.00 85 1031.9
20260510054836 64 0 1.0 3.0 0.00 0.00 0.00 85 1032.2
20260510054332 64 53 0.0 2.0 0.00 0.00 0.00 86 1032.3
20260510053827 64 0 2.0 4.0 0.00 0.00 0.00 86 1032.3
20260510053323 64 20 0.0 2.0 0.00 0.00 0.00 86 1031.9
20260510052820 64 7 1.0 2.0 0.00 0.00 0.00 86 1032.1
20260510052316 64 29 1.0 2.0 0.00 0.00 0.00 86 1032.3
20260510051812 64 75 0.0 2.0 0.00 0.00 0.00 87 1031.9
20260510051309 64 8 0.0 2.0 0.00 0.00 0.00 87 1032.1
20260510050805 64 11 0.0 2.0 0.00 0.00 0.00 87 1032.3
20260510050257 64 0 0.0 0.0 0.00 0.00 0.00 87 1031.9
20260510045754 64 7 0.0 3.0 0.00 0.00 0.00 86 1031.9
20260510045250 64 40 0.0 2.0 0.00 0.00 0.00 86 1032.2
20260510044748 64 60 0.0 3.0 0.00 0.00 0.00 85 1032.3
20260510044245 64 66 1.0 2.0 0.00 0.00 0.00 85 1032.1
20260510043740 65 66 0.0 4.0 0.00 0.00 0.00 85 1032.2
20260510043237 65 54 0.0 3.0 0.00 0.00 0.00 84 1032.2
20260510042734 65 90 1.0 2.0 0.00 0.00 0.00 84 1031.9
20260510042230 65 32 2.0 4.0 0.00 0.00 0.00 84 1032.2
20260510041727 65 90 0.0 4.0 0.00 0.00 0.00 84 1031.8
20260510041224 65 166 0.0 3.0 0.00 0.00 0.00 84 1031.7
20260510040721 65 90 0.0 3.0 0.00 0.00 0.00 84 1031.9
20260510040218 65 16 0.0 3.0 0.00 0.00 0.00 84 1031.7
20260510035713 65 90 2.0 3.0 0.00 0.00 0.00 83 1031.7
20260510035210 65 49 0.0 4.0 0.00 0.00 0.00 83 1031.7
20260510034705 65 32 2.0 5.0 0.00 0.00 0.00 83 1031.8
20260510034203 65 0 0.0 3.0 0.00 0.00 0.00 83 1031.8
20260510033659 65 41 2.0 4.0 0.00 0.00 0.00 83 1031.9
20260510033157 65 23 0.0 4.0 0.00 0.00 0.00 83 1031.7
20260510032653 66 29 3.0 4.0 0.00 0.00 0.00 83 1031.7
20260510032149 65 79 2.0 6.0 0.00 0.00 0.00 83 1031.5
20260510031643 65 56 4.0 6.0 0.00 0.00 0.00 84 1031.4
20260510031140 65 19 3.0 4.0 0.00 0.00 0.00 84 1031.7
20260510030635 65 14 2.0 4.0 0.00 0.00 0.00 84 1031.7
20260510030133 65 12 2.0 4.0 0.00 0.00 0.00 83 1031.6
20260510025630 65 3 2.0 5.0 0.00 0.00 0.00 83 1031.5
20260510025127 66 54 3.0 6.0 0.00 0.00 0.00 82 1031.5
20260510024623 66 41 2.0 5.0 0.00 0.00 0.00 82 1031.4
20260510024120 66 0 1.0 5.0 0.00 0.00 0.00 81 1031.4
20260510023616 66 27 3.0 5.0 0.00 0.00 0.00 81 1031.5
20260510023114 66 43 4.0 8.0 0.00 0.00 0.00 80 1031.6
20260510022614 66 31 3.0 5.0 0.00 0.00 0.00 80 1031.4
20260510022108 66 69 1.0 6.0 0.00 0.00 0.00 79 1031.4
20260510021604 66 29 3.0 5.0 0.00 0.00 0.00 79 1031.3
20260510021102 66 47 3.0 5.0 0.00 0.00 0.00 79 1031.4
20260510020556 67 47 3.0 6.0 0.00 0.00 0.00 78 1031.3
20260510020052 67 36 3.0 10.0 0.00 0.00 0.00 77 1031.1
20260510015548 67 26 3.0 10.0 0.00 0.00 0.00 75 1031.1
20260510015044 68 29 5.0 5.0 0.00 0.00 0.00 73 1031.0
20260510014540 68 22 4.0 8.0 0.00 0.00 0.00 71 1030.8
20260510014038 69 66 0.0 8.0 0.00 0.00 0.00 69 1030.8
20260510013532 68 11 2.0 3.0 0.00 0.00 0.00 69 1030.6
20260510013028 68 29 0.0 2.0 0.00 0.00 0.00 70 1030.4
20260510012522 68 0 2.0 2.0 0.00 0.00 0.00 70 1030.3
20260510012019 68 0 1.0 2.0 0.00 0.00 0.00 70 1030.2
20260510011519 68 0 1.0 2.0 0.00 0.00 0.00 70 1030.3
20260510011014 68 0 2.0 2.0 0.00 0.00 0.00 70 1030.1
20260510010512 68 0 2.0 2.0 0.00 0.00 0.00 71 1030.0
20260510010009 69 0 2.0 2.0 0.00 0.00 0.00 70 1030.1
20260510005504 69 0 2.0 2.0 0.00 0.00 0.00 67 1029.7
20260510005002 70 23 4.0 4.0 0.00 0.00 0.00 65 1029.7
20260510004459 69 41 2.0 4.0 0.00 0.00 0.00 66 1029.6
20260510003957 69 24 2.0 3.0 0.00 0.00 0.00 69 1029.8
20260510003454 69 12 2.0 3.0 0.00 0.00 0.00 69 1029.8
20260510002949 69 24 2.0 3.0 0.00 0.00 0.00 69 1029.4
20260510002445 70 22 3.0 4.0 0.00 0.00 0.00 68 1029.7
20260510001941 70 19 2.0 4.0 0.00 0.00 0.00 67 1029.6
20260510001439 69 22 3.0 3.0 0.00 0.00 0.00 69 1029.6
20260510000937 70 24 2.0 2.0 0.00 0.00 0.00 69 1029.7
20260510000433 70 28 2.0 4.0 0.00 0.00 0.00 70 1029.4
20260509235929 70 23 2.0 3.0 0.00 0.00 0.00 71 1029.5
20260509235426 70 15 2.0 3.0 0.00 0.00 0.00 72 1029.0